Location: Curupao
(10.4996°N, 66.6442°W)
Time: 11:34:47
(UTC+00:00)

Cosmos 2366 rocket - Pass Details

Date: 23 May 2024
Orbit: 953 x 997 km, 82.9° (Epoch: 24 June)

Event Time Altitude Azimuth Distance (km) Brightness Sun altitude
Exits shadow 08:48:02 22° 211° (SSW) 2,025 5.2 -17.9°
Maximum altitude 08:51:53 47° 274° (W) 1,293 4.3 -17.0°
Drops below altitude 10° 08:57:56 10° 347° (NNW) 2,758 6.5 -15.7°
Sets 09:00:35 0° 353° (N) 3,706 7.3 -15.1°
